#timestamp,LO_Frequency,Hit,StdDev 
1507125615.9,286047000.5,N
1507125635.7,286047000.7,N
1507125655.6,286046998.7,N
1507125675.4,286046999.2,N
1507125695.2,286046998.4,N
1507125715.1,286047001.1,N
1507125716.0,286047001.1,N
1507125735.8,286047000.8,N
1507125755.6,286047000.6,N
1507125775.5,286046999.7,N
1507125795.3,286047002.3,N
1507125815.2,286047002.2,N
1507125835.9,286047000.4,N
1507125855.7,286047000.2,N
1507125875.6,286047000.1,N
1507125895.4,286047000.3,N
1507125915.2,286047000.6,N
1507125935.1,286046998.5,N
1507125936.0,286046998.5,N
1507125955.8,286047001.2,N
1507125975.7,286047000.6,N
1507125995.5,286047000.8,N
1507126015.3,286046998.6,N
1507126035.2,286046997.0,N
1507126055.0,286046999.2,N
1507126055.9,286046999.2,N
1507126075.8,286046999.2,N
1507126095.6,286046998.3,N
1507126115.4,286046999.4,N
1507126135.3,286046996.5,N
1507126155.1,286046997.5,N
1507126175.9,286046997.3,N
1507126195.7,286046997.1,N
1507126215.5,286046996.5,N
1507126235.4,286046996.6,N
1507126255.2,286046996.6,N
1507126275.0,286046996.7,N
1507126275.9,286046996.7,N
1507126295.8,286046994.9,N
1507126315.6,286046997.6,N
1507126335.5,286046995.2,N
1507126355.3,286046995.5,N
1507126375.1,286046995.8,N
1507126395.9,286046996.6,N
1507126415.7,286046999.6,N
1507126435.5,286046999.1,N
1507126455.4,286046998.6,N
1507126475.2,286046999.6,N
1507126495.1,286046999.4,N
1507126496.0,286046999.4,N
1507126515.8,286046999.3,N
1507126535.6,286046999.3,N
1507126555.5,286046999.5,N
1507126575.3,286046999.0,N
1507126595.1,286046998.6,N
1507126615.9,286046998.7,N
1507126635.7,286047000.4,N
1507126655.6,286047000.5,N
1507126675.4,286047000.6,N
1507126695.2,286047000.7,N
1507126715.1,286047000.6,N
1507126716.0,286047000.6,N
1507126735.8,286047000.7,N
1507126755.6,286047000.2,N
1507126775.5,286047002.8,N
1507126795.3,286046999.8,N
1507126815.2,286047000.0,N
1507126835.9,286046999.7,N
1507126855.7,286047000.1,N
1507126875.6,286047002.7,N
1507126895.4,286047000.1,N
1507126915.3,286047002.2,N
1507126935.1,286047001.1,N
1507126936.0,286047001.1,N
1507126955.8,286047001.0,N
1507126975.7,286046998.5,N
1507126995.5,286047000.8,N
1507127015.3,286047000.7,N
1507127035.2,286047000.8,N
1507127055.0,286046999.9,N
1507127055.9,286046999.9,N
1507127075.8,286047002.4,N
1507127095.6,286047000.1,N
1507127115.4,286046999.9,N
1507127135.3,286046999.9,N
1507127155.1,286046999.8,N
1507127175.8,286047002.3,N
1507127195.7,286047002.7,N
1507127215.5,286046999.8,N
1507127235.4,286046999.9,N
1507127255.2,286047002.8,N
1507127275.0,286047002.5,N
1507127275.9,286047002.5,N
1507127295.8,286047000.8,N
1507127315.6,286046998.2,N
1507127335.5,286046998.4,N
1507127355.3,286047000.7,N
1507127375.1,286046998.5,N
1507127395.9,286047000.7,N
1507127415.7,286046999.9,N
1507127435.6,286047000.2,N
1507127455.4,286047001.7,N
1507127475.2,286047004.4,Y
1507127495.1,286047001.8,P
1507127496.0,286047001.8,N
1507127515.8,286047001.7,N
1507127535.7,286047002.0,Y
1507127555.5,286047000.7,P
1507127575.3,286047000.3,N
1507127595.2,286046998.1,P
1507127615.0,286046999.9,N
1507127615.9,286046999.9,N
1507127635.8,286046999.9,N
1507127655.6,286046999.8,N
1507127675.4,286047002.3,N
1507127695.3,286047000.4,N
1507127715.1,286046999.9,N
1507127735.9,286047000.9,N
1507127755.7,286047000.9,N
1507127775.5,286046998.4,N
1507127795.4,286046999.8,N
1507127815.2,286046999.8,N
1507127835.0,286047001.2,N
1507127835.9,286047001.2,N
1507127855.8,286047001.2,N
1507127875.6,286046998.2,N
1507127895.5,286047000.3,N
1507127915.3,286047001.1,N
1507127935.1,286047000.5,N
1507127955.9,286047000.5,N
1507127975.7,286047000.7,N
1507127995.6,286047000.8,N
1507128015.4,286047002.7,N
1507128035.2,286047000.6,N
1507128055.1,286047002.8,N
1507128056.0,286047002.8,N
1507128075.8,286047002.8,N
1507128095.7,286047002.4,N
1507128115.5,286047001.7,N
1507128135.3,286047001.7,N
1507128155.2,286047000.3,N
1507128175.0,286047000.4,N
1507128175.9,286047000.4,N
1507128195.8,286047000.7,N
1507128215.6,286047001.0,N
1507128235.4,286047000.7,N
1507128255.3,286046998.2,N
1507128275.1,286047000.8,N
1507128295.9,286047000.5,N
1507128315.7,286046999.9,N
1507128335.5,286047002.8,N
1507128355.4,286046999.8,N
1507128375.2,286046999.7,N
1507128395.0,286046999.7,N
1507128395.9,286046999.7,N
1507128415.8,286047002.7,N
1507128435.6,286047000.3,N
1507128455.5,286047002.7,N
1507128475.3,286047001.5,N
1507128495.1,286047001.7,N
1507128515.9,286047001.4,N
1507128535.7,286047003.8,Y
1507128555.5,286047001.7,P
1507128575.4,286047001.5,P
1507128595.2,286047001.3,P
1507128615.1,286047000.1,N
1507128616.0,286047000.1,N
1507128635.8,286047002.8,Y
1507128655.6,286047000.6,P
1507128675.5,286047000.9,P
1507128695.3,286047000.8,P
1507128715.2,286047000.0,N
1507128735.9,286047000.3,N
1507128755.7,286047000.2,N
1507128775.6,286047001.1,Y
1507128795.4,286046999.1,P
1507128815.2,286046999.4,N
1507128835.1,286046998.3,N
1507128836.0,286046998.3,N
1507128855.8,286046998.7,N
1507128875.7,286046998.5,N
1507128895.5,286046999.5,N
1507128915.3,286046999.4,N
1507128935.2,286047001.2,N
1507128985.0,286046998.9,E
1507128995.9,286046998.8,N
1507129015.7,286046999.9,P
1507129035.6,286047001.1,N
1507129055.4,286047001.0,N
1507129075.2,286047000.7,N
1507129095.1,286047000.6,N
1507129096.0,286047000.6,N
1507129115.8,286047000.8,N
1507129135.6,286046998.3,N
1507129155.5,286046999.4,N
1507129175.3,286046998.9,N
1507129195.2,286047001.0,N
